Location: Bennemühlen
(52.5740°N, 9.7135°E)
Time: 03:33:16
(UTC+00:00)

A-11 Canister half - Pass Details

Date: 27 February 2026
Orbit: 1512 x 1687 km, 47.2° (Epoch: 7 March)

Event Time Altitude Azimuth Distance (km) Brightness Sun altitude
Rises 01:40:54 0° 285° (WNW) 4,898 - -38.8°
Reaches altitude 10° 01:45:55 10° 265° (W) 3,875 - -38.3°
Maximum altitude 01:50:46 15° 235° (SW) 3,452 - -37.8°
Drops below altitude 10° 01:55:33 10° 204° (SSW) 3,797 - -37.3°
Sets 02:00:25 0° 183° (S) 4,740 - -36.8°
